AAL1321 KDCA-KMIA

Flight info

Callsign AAL1321
Flight time 2h 10m
Altitude 36000
Route AMEEE1 SCOOB EARZZ SKARP Y313 HOAGG BNFSH3
Aircraft A321/M-SDE3FGHIRWY/LB1

Departure

Time 2026-04-26 13:15
Airport Ronald Reagan Washington National Airport (KDCA)

Arrival

Time 2026-04-26 15:25
Airport Miami International Airport (KMIA)
Time Latitude Longitude Altitude Speed Heading
2026-04-26 12:41 38.85166 -77.04049 26 ft 0 kts 317°
2026-04-26 13:06 38.85157 -77.04039 24 ft 4 kts 309°
2026-04-26 13:07 38.85147 -77.04012 27 ft 4 kts 259°
2026-04-26 13:07 38.85160 -77.03989 27 ft 4 kts 202°
2026-04-26 13:07 38.85186 -77.03980 28 ft 4 kts 181°
2026-04-26 13:07 38.85195 -77.03980 24 ft 0 kts 175°
2026-04-26 13:11 38.85188 -77.03980 24 ft 5 kts 175°
2026-04-26 13:11 38.85110 -77.03972 24 ft 18 kts 175°
2026-04-26 13:11 38.84967 -77.03958 24 ft 20 kts 175°
2026-04-26 13:11 38.84864 -77.03899 24 ft 15 kts 148°
2026-04-26 13:12 38.84759 -77.03874 24 ft 16 kts 175°
2026-04-26 13:12 38.84649 -77.03864 25 ft 16 kts 175°
2026-04-26 13:12 38.84531 -77.03853 24 ft 18 kts 176°
2026-04-26 13:12 38.84408 -77.03842 25 ft 18 kts 175°
2026-04-26 13:13 38.84284 -77.03829 25 ft 15 kts 174°
2026-04-26 13:13 38.84232 -77.03799 24 ft 1 kts 140°
2026-04-26 13:13 38.84205 -77.03765 24 ft 11 kts 127°
2026-04-26 13:13 38.84252 -77.03684 24 ft 18 kts 358°
2026-04-26 13:14 38.84276 -77.03687 23 ft 0 kts 354°
2026-04-26 13:14 38.84478 -77.03708 24 ft 70 kts 356°
2026-04-26 13:14 38.85201 -77.03780 27 ft 136 kts 355°
2026-04-26 13:14 38.86301 -77.03888 220 ft 171 kts 355°
2026-04-26 13:15 38.87447 -77.04265 964 ft 174 kts 327°
2026-04-26 13:15 38.88354 -77.05299 1852 ft 174 kts 322°
2026-04-26 13:15 38.89305 -77.06347 2339 ft 189 kts 324°
2026-04-26 13:15 38.90249 -77.07630 2599 ft 216 kts 305°
2026-04-26 13:16 38.91035 -77.09443 2815 ft 243 kts 303°
2026-04-26 13:16 38.92096 -77.11149 3331 ft 251 kts 326°
2026-04-26 13:16 38.93551 -77.12421 4145 ft 254 kts 329°
2026-04-26 13:16 38.95051 -77.13647 4835 ft 255 kts 332°
2026-04-26 13:17 38.98316 -77.15114 6265 ft 255 kts
2026-04-26 13:17 38.99967 -77.14283 6972 ft 260 kts 35°
2026-04-26 13:18 39.02736 -77.11222 8355 ft 266 kts 50°
2026-04-26 13:18 39.03619 -77.09117 9078 ft 272 kts 68°
2026-04-26 13:18 39.03743 -77.04189 10491 ft 286 kts 91°
2026-04-26 13:19 39.03532 -77.01637 11167 ft 288 kts 91°
2026-04-26 13:19 39.03129 -76.99090 11847 ft 295 kts 104°
2026-04-26 13:19 39.02187 -76.96708 12549 ft 304 kts 121°
2026-04-26 13:19 39.00730 -76.94711 13272 ft 310 kts 139°
2026-04-26 13:20 38.98863 -76.93299 13988 ft 315 kts 156°
2026-04-26 13:20 38.96771 -76.92459 14663 ft 315 kts 162°
2026-04-26 13:20 38.94673 -76.91676 15337 ft 313 kts 162°
2026-04-26 13:20 38.92582 -76.90889 16013 ft 311 kts 161°
2026-04-26 13:21 38.90456 -76.90080 16255 ft 329 kts 161°
2026-04-26 13:21 38.88977 -76.89513 16347 ft 341 kts 161°
2026-04-26 13:21 38.85822 -76.88303 16517 ft 366 kts 162°
2026-04-26 13:21 38.83319 -76.87347 16630 ft 384 kts 161°
2026-04-26 13:22 38.80698 -76.86349 16772 ft 401 kts 161°
2026-04-26 13:22 38.77975 -76.85316 17003 ft 414 kts 162°
2026-04-26 13:22 38.75231 -76.84281 17493 ft 419 kts 162°
2026-04-26 13:22 38.72421 -76.83227 18055 ft 422 kts 162°
2026-04-26 13:23 38.69592 -76.82163 18610 ft 425 kts 162°
2026-04-26 13:23 38.66740 -76.81090 19134 ft 428 kts 162°
2026-04-26 13:23 38.63876 -76.80014 19659 ft 430 kts 163°
2026-04-26 13:23 38.61000 -76.78934 20172 ft 432 kts 163°
2026-04-26 13:24 38.58113 -76.77850 20718 ft 433 kts 164°
2026-04-26 13:24 38.55216 -76.76759 21252 ft 434 kts 165°
2026-04-26 13:24 38.52312 -76.75666 21757 ft 435 kts 165°
2026-04-26 13:24 38.49400 -76.74570 22251 ft 437 kts 165°
2026-04-26 13:25 38.46515 -76.73487 22718 ft 439 kts 166°
2026-04-26 13:25 38.43575 -76.72389 23182 ft 441 kts 166°
2026-04-26 13:25 38.40599 -76.71399 23627 ft 441 kts 172°
2026-04-26 13:25 38.37562 -76.70858 24010 ft 442 kts 176°
2026-04-26 13:26 38.34507 -76.70371 24422 ft 442 kts 176°
2026-04-26 13:26 38.31457 -76.69879 24869 ft 442 kts 176°
2026-04-26 13:26 38.28404 -76.69386 25278 ft 443 kts 176°
2026-04-26 13:26 38.25341 -76.68894 25665 ft 444 kts 176°
2026-04-26 13:27 38.22271 -76.68397 26040 ft 445 kts 176°
2026-04-26 13:27 38.19188 -76.67901 26412 ft 446 kts 177°
2026-04-26 13:27 38.16102 -76.67408 26780 ft 448 kts 177°
2026-04-26 13:27 38.13006 -76.66910 27136 ft 449 kts 177°
2026-04-26 13:28 38.09907 -76.66417 27495 ft 449 kts 178°
2026-04-26 13:28 38.06801 -76.66035 27865 ft 449 kts 180°
2026-04-26 13:28 38.03679 -76.65785 28228 ft 449 kts 181°
2026-04-26 13:28 38.00594 -76.65620 28574 ft 450 kts 182°
2026-04-26 13:29 37.97459 -76.65487 28926 ft 451 kts 182°
2026-04-26 13:29 37.95340 -76.65394 29156 ft 452 kts 182°
2026-04-26 13:29 37.91192 -76.65176 29803 ft 449 kts 182°
2026-04-26 13:29 37.88079 -76.64979 30261 ft 447 kts 181°
2026-04-26 13:30 37.84985 -76.64764 30707 ft 444 kts 181°
2026-04-26 13:30 37.81914 -76.64546 31148 ft 441 kts 182°
2026-04-26 13:30 37.78864 -76.64331 31580 ft 438 kts 182°
2026-04-26 13:30 37.75827 -76.64119 32009 ft 435 kts 182°
2026-04-26 13:31 37.72807 -76.63916 32435 ft 432 kts 182°
2026-04-26 13:31 37.69816 -76.63720 32859 ft 430 kts 182°
2026-04-26 13:31 37.66834 -76.63525 33277 ft 427 kts 182°
2026-04-26 13:31 37.63873 -76.63333 33690 ft 425 kts 182°
2026-04-26 13:32 37.60963 -76.63141 34098 ft 422 kts 182°
2026-04-26 13:32 37.58049 -76.63177 34418 ft 415 kts 191°
2026-04-26 13:32 37.55179 -76.63562 34671 ft 415 kts 191°
2026-04-26 13:32 37.52304 -76.63960 34907 ft 416 kts 191°
2026-04-26 13:33 37.49424 -76.64361 35140 ft 416 kts 191°
2026-04-26 13:33 37.46541 -76.64764 35375 ft 417 kts 191°
2026-04-26 13:33 37.43649 -76.65164 35602 ft 418 kts 191°
2026-04-26 13:33 37.40750 -76.65565 35803 ft 419 kts 191°
2026-04-26 13:34 37.37847 -76.65963 36017 ft 420 kts 191°
2026-04-26 13:34 37.32054 -76.66753 36103 ft 422 kts 191°
2026-04-26 13:35 37.26219 -76.67544 36090 ft 422 kts 191°
2026-04-26 13:35 37.20379 -76.68337 36091 ft 422 kts 191°
2026-04-26 13:36 37.14543 -76.69124 36081 ft 422 kts 191°
2026-04-26 13:36 37.08710 -76.69913 36083 ft 422 kts 191°
2026-04-26 13:37 37.02918 -76.70704 36081 ft 422 kts 191°
2026-04-26 13:37 36.97077 -76.71495 36083 ft 422 kts 191°
2026-04-26 13:38 36.91239 -76.72280 36065 ft 422 kts 191°
2026-04-26 13:38 36.85396 -76.73063 36073 ft 422 kts 191°
2026-04-26 13:39 36.79551 -76.73854 36082 ft 422 kts 191°
2026-04-26 13:39 36.73705 -76.74644 36088 ft 423 kts 191°
2026-04-26 13:40 36.67895 -76.75422 36080 ft 423 kts 191°
2026-04-26 13:40 36.62044 -76.76207 36083 ft 423 kts 191°
2026-04-26 13:41 36.56181 -76.76988 36066 ft 423 kts 191°
2026-04-26 13:41 36.50319 -76.77761 36069 ft 423 kts 191°
2026-04-26 13:42 36.44466 -76.78539 36042 ft 423 kts 191°
2026-04-26 13:42 36.38610 -76.79324 36049 ft 423 kts 191°
2026-04-26 13:43 36.32751 -76.80105 36061 ft 424 kts 191°
2026-04-26 13:43 36.26879 -76.80880 36060 ft 424 kts 191°
2026-04-26 13:44 36.21047 -76.81646 36060 ft 424 kts 191°
2026-04-26 13:44 36.15169 -76.82428 36064 ft 424 kts 191°
2026-04-26 13:45 36.09292 -76.83212 36064 ft 425 kts 191°
2026-04-26 13:45 36.03404 -76.83986 36066 ft 425 kts 191°
2026-04-26 13:46 35.97516 -76.84754 36050 ft 425 kts 191°
2026-04-26 13:46 35.91681 -76.85575 36050 ft 423 kts 195°
2026-04-26 13:47 35.86084 -76.87584 36059 ft 418 kts 201°
2026-04-26 13:47 35.80548 -76.89782 36046 ft 417 kts 201°
2026-04-26 13:48 35.75015 -76.91974 36027 ft 417 kts 201°
2026-04-26 13:48 35.69482 -76.94150 36031 ft 418 kts 201°
2026-04-26 13:49 35.63966 -76.96321 36038 ft 418 kts 201°
2026-04-26 13:49 35.58423 -76.98496 36036 ft 418 kts 201°
2026-04-26 13:50 35.52881 -77.00675 36006 ft 418 kts 201°
2026-04-26 13:50 35.47332 -77.02858 36018 ft 419 kts 201°
2026-04-26 13:51 35.41780 -77.05038 36025 ft 419 kts 201°
2026-04-26 13:51 35.36253 -77.07192 36027 ft 419 kts 201°
2026-04-26 13:52 35.30688 -77.09358 36025 ft 419 kts 201°
2026-04-26 13:52 35.25129 -77.11525 36024 ft 419 kts 201°
2026-04-26 13:53 35.19570 -77.13691 36028 ft 419 kts 201°
2026-04-26 13:53 35.14023 -77.15858 36013 ft 418 kts 201°
2026-04-26 13:54 35.08488 -77.18006 36021 ft 418 kts 201°
2026-04-26 13:54 35.02931 -77.20149 36001 ft 419 kts 201°
2026-04-26 13:55 34.95526 -77.23009 36014 ft 419 kts 202°
2026-04-26 13:56 34.86280 -77.26592 36000 ft 420 kts 201°
2026-04-26 13:56 34.80715 -77.28745 35964 ft 420 kts 201°
2026-04-26 13:57 34.75138 -77.30892 35974 ft 420 kts 201°
2026-04-26 13:57 34.69592 -77.33014 35985 ft 421 kts 201°
2026-04-26 13:58 34.64008 -77.35156 35993 ft 421 kts 201°
2026-04-26 13:58 34.58428 -77.37294 36317 ft 420 kts 201°
2026-04-26 13:58 34.55635 -77.38361 36565 ft 420 kts 201°
2026-04-26 13:59 34.52842 -77.39428 36811 ft 420 kts 201°
2026-04-26 13:59 34.50057 -77.40494 37066 ft 419 kts 201°
2026-04-26 13:59 34.47217 -77.41334 37305 ft 422 kts 194°
2026-04-26 14:00 34.38560 -77.43020 37937 ft 421 kts 194°
2026-04-26 14:00 34.35667 -77.43583 37978 ft 421 kts 194°
2026-04-26 14:01 34.29888 -77.44713 37974 ft 420 kts 194°
2026-04-26 14:01 34.24129 -77.45843 37967 ft 419 kts 194°
2026-04-26 14:02 34.18359 -77.46968 37961 ft 419 kts 194°
2026-04-26 14:02 34.12591 -77.48090 37962 ft 420 kts 194°
2026-04-26 14:03 34.06824 -77.49211 37964 ft 419 kts 193°
2026-04-26 14:03 34.01102 -77.50317 37987 ft 418 kts 193°
2026-04-26 14:04 33.95362 -77.51427 37984 ft 417 kts 194°
2026-04-26 14:04 33.89645 -77.52538 37985 ft 416 kts 194°
2026-04-26 14:05 33.84890 -77.53459 37987 ft 416 kts 194°
2026-04-26 14:05 33.79179 -77.54560 37973 ft 415 kts 193°
2026-04-26 14:06 33.73469 -77.55663 37975 ft 415 kts 193°
2026-04-26 14:06 33.67757 -77.56764 37976 ft 415 kts 193°
2026-04-26 14:07 33.62084 -77.57852 37976 ft 416 kts 193°
2026-04-26 14:07 33.56432 -77.59191 37934 ft 412 kts 200°
2026-04-26 14:08 33.50905 -77.61143 37916 ft 415 kts 199°
2026-04-26 14:08 33.45335 -77.63094 37924 ft 418 kts 199°
2026-04-26 14:09 33.39730 -77.65045 37944 ft 420 kts 199°
2026-04-26 14:09 33.34112 -77.67003 37946 ft 421 kts 199°
2026-04-26 14:10 33.28515 -77.68953 37929 ft 423 kts 199°
2026-04-26 14:10 33.22857 -77.70925 37940 ft 424 kts 199°
2026-04-26 14:11 33.14348 -77.73880 37974 ft 425 kts 199°
2026-04-26 14:11 33.08664 -77.75857 37973 ft 426 kts 199°
2026-04-26 14:12 33.02970 -77.77829 37948 ft 426 kts 199°
2026-04-26 14:12 32.97266 -77.79809 37958 ft 427 kts 199°
2026-04-26 14:13 32.88725 -77.82756 37968 ft 428 kts 199°
2026-04-26 14:14 32.83007 -77.84726 37969 ft 428 kts 199°
2026-04-26 14:14 32.77283 -77.86697 37976 ft 428 kts 199°
2026-04-26 14:15 32.71556 -77.88661 37979 ft 428 kts 199°
2026-04-26 14:15 32.65827 -77.90630 37982 ft 428 kts 199°
2026-04-26 14:16 32.60082 -77.92526 37982 ft 428 kts 198°
2026-04-26 14:16 32.54356 -77.94352 37969 ft 429 kts 198°
2026-04-26 14:17 32.48586 -77.96202 37950 ft 430 kts 198°
2026-04-26 14:17 32.42807 -77.98071 37943 ft 431 kts 198°
2026-04-26 14:18 32.37005 -77.99946 37947 ft 433 kts 198°
2026-04-26 14:18 32.31188 -78.01830 37944 ft 434 kts 198°
2026-04-26 14:19 32.25381 -78.03696 37950 ft 435 kts 198°
2026-04-26 14:19 32.19525 -78.05581 37956 ft 436 kts 198°
2026-04-26 14:20 32.13664 -78.07473 37968 ft 437 kts 198°
2026-04-26 14:20 32.07791 -78.09362 37974 ft 437 kts 198°
2026-04-26 14:21 32.01909 -78.11245 37955 ft 438 kts 198°
2026-04-26 14:21 31.96056 -78.13115 37960 ft 439 kts 198°
2026-04-26 14:22 31.90158 -78.15000 37960 ft 439 kts 198°
2026-04-26 14:22 31.84252 -78.16886 37973 ft 440 kts 198°
2026-04-26 14:23 31.78343 -78.18770 37965 ft 440 kts 199°
2026-04-26 14:23 31.72424 -78.20653 37964 ft 441 kts 199°
2026-04-26 14:24 31.66535 -78.22529 37972 ft 441 kts 199°
2026-04-26 14:24 31.60603 -78.24417 37974 ft 442 kts 199°
2026-04-26 14:25 31.54674 -78.26302 37975 ft 442 kts 199°
2026-04-26 14:25 31.48739 -78.28174 37967 ft 442 kts 199°
2026-04-26 14:26 31.42808 -78.30089 37982 ft 442 kts 199°
2026-04-26 14:26 31.36901 -78.32095 37987 ft 442 kts 200°
2026-04-26 14:27 31.31036 -78.34082 37990 ft 442 kts 200°
2026-04-26 14:27 31.25124 -78.36059 37972 ft 442 kts 199°
2026-04-26 14:28 31.19211 -78.38030 37994 ft 442 kts 199°
2026-04-26 14:28 31.13287 -78.39997 37993 ft 442 kts 199°
2026-04-26 14:29 31.07372 -78.41970 37996 ft 442 kts 199°
2026-04-26 14:29 31.01459 -78.43936 37997 ft 442 kts 199°
2026-04-26 14:30 30.95543 -78.45897 37985 ft 442 kts 199°
2026-04-26 14:30 30.89667 -78.47846 37995 ft 442 kts 199°
2026-04-26 14:31 30.83744 -78.49808 38000 ft 442 kts 199°
2026-04-26 14:31 30.77826 -78.51760 38007 ft 442 kts 199°
2026-04-26 14:32 30.71901 -78.53714 37983 ft 443 kts 199°
2026-04-26 14:32 30.65970 -78.55678 37999 ft 443 kts 199°
2026-04-26 14:33 30.60045 -78.57632 38002 ft 443 kts 199°
2026-04-26 14:33 30.54145 -78.59575 38009 ft 443 kts 199°
2026-04-26 14:34 30.48207 -78.61519 38014 ft 443 kts 199°
2026-04-26 14:34 30.42266 -78.63467 38001 ft 443 kts 199°
2026-04-26 14:35 30.36327 -78.65426 38006 ft 444 kts 199°
2026-04-26 14:35 30.30381 -78.67375 38011 ft 444 kts 199°
2026-04-26 14:36 30.24421 -78.69322 37990 ft 446 kts 200°
2026-04-26 14:36 30.18471 -78.71263 37979 ft 448 kts 199°
2026-04-26 14:37 30.12447 -78.73224 37978 ft 451 kts 199°
2026-04-26 14:37 30.06405 -78.75192 37985 ft 452 kts 199°
2026-04-26 14:38 30.00344 -78.77170 37999 ft 453 kts 200°
2026-04-26 14:38 29.94271 -78.79144 38007 ft 453 kts 199°
2026-04-26 14:39 29.88195 -78.81116 37997 ft 454 kts 200°
2026-04-26 14:39 29.82107 -78.83085 38008 ft 454 kts 199°
2026-04-26 14:40 29.76018 -78.85044 38014 ft 454 kts 199°
2026-04-26 14:40 29.69983 -78.86959 38016 ft 453 kts 199°
2026-04-26 14:41 29.64077 -78.89331 37988 ft 446 kts 212°
2026-04-26 14:41 29.58585 -78.92658 37961 ft 447 kts 212°
2026-04-26 14:41 29.55836 -78.94321 37682 ft 447 kts 212°
2026-04-26 14:42 29.53083 -78.95987 37414 ft 447 kts 212°
2026-04-26 14:42 29.50324 -78.97657 37149 ft 448 kts 212°
2026-04-26 14:42 29.47569 -78.99330 36889 ft 448 kts 212°
2026-04-26 14:42 29.44838 -79.00988 36634 ft 449 kts 212°
2026-04-26 14:43 29.42071 -79.02665 36377 ft 450 kts 212°
2026-04-26 14:43 29.39299 -79.04343 36130 ft 451 kts 212°
2026-04-26 14:43 29.36522 -79.06023 35948 ft 451 kts 212°
2026-04-26 14:44 29.30917 -79.09408 36010 ft 459 kts 212°
2026-04-26 14:44 29.25235 -79.12833 36010 ft 462 kts 212°
2026-04-26 14:45 29.19540 -79.16252 36010 ft 462 kts 212°
2026-04-26 14:45 29.13881 -79.19657 36010 ft 462 kts 212°
2026-04-26 14:46 29.08181 -79.23077 36005 ft 462 kts 212°
2026-04-26 14:46 29.02476 -79.26501 36011 ft 463 kts 212°
2026-04-26 14:47 28.96779 -79.29921 36010 ft 463 kts 212°
2026-04-26 14:47 28.91078 -79.33342 36010 ft 463 kts 212°
2026-04-26 14:48 28.85377 -79.36749 36009 ft 463 kts 212°
2026-04-26 14:48 28.79671 -79.40154 36011 ft 463 kts 212°
2026-04-26 14:49 28.73992 -79.43540 35997 ft 465 kts 213°
2026-04-26 14:49 28.68229 -79.46971 36014 ft 469 kts 213°
2026-04-26 14:50 28.62442 -79.50417 36012 ft 470 kts 213°
2026-04-26 14:50 28.56650 -79.53861 36015 ft 470 kts 213°
2026-04-26 14:51 28.50857 -79.57302 36013 ft 470 kts 213°
2026-04-26 14:51 28.45058 -79.60741 36008 ft 470 kts 213°
2026-04-26 14:52 28.39247 -79.64169 36017 ft 470 kts 212°
2026-04-26 14:52 28.33438 -79.67589 36016 ft 470 kts 213°
2026-04-26 14:53 28.27637 -79.71021 36012 ft 470 kts 213°
2026-04-26 14:53 28.21816 -79.74457 36010 ft 473 kts 213°
2026-04-26 14:54 28.16007 -79.77873 36013 ft 473 kts 213°
2026-04-26 14:54 28.10164 -79.81313 36013 ft 473 kts 213°
2026-04-26 14:55 28.04321 -79.84753 36011 ft 473 kts 213°
2026-04-26 14:55 27.98480 -79.88185 35992 ft 472 kts 213°
2026-04-26 14:56 27.92653 -79.91598 36010 ft 471 kts 213°
2026-04-26 14:56 27.86832 -79.94996 36010 ft 471 kts 213°
2026-04-26 14:57 27.81019 -79.98399 36010 ft 470 kts 213°
2026-04-26 14:57 27.75204 -80.01795 36010 ft 471 kts 213°
2026-04-26 14:58 27.69387 -80.05182 35992 ft 470 kts 212°
2026-04-26 14:58 27.63567 -80.08569 36000 ft 470 kts 212°
2026-04-26 14:59 27.57790 -80.11937 35997 ft 470 kts 212°
2026-04-26 14:59 27.51965 -80.15324 35997 ft 470 kts 212°
2026-04-26 15:00 27.46151 -80.18690 35993 ft 467 kts 212°
2026-04-26 15:00 27.43264 -80.20359 35871 ft 465 kts 212°
2026-04-26 15:00 27.40365 -80.22041 34995 ft 472 kts 212°
2026-04-26 15:00 27.37469 -80.23726 34174 ft 476 kts 211°
2026-04-26 15:01 27.34516 -80.25442 33308 ft 479 kts 211°
2026-04-26 15:01 27.31544 -80.27164 32410 ft 482 kts 211°
2026-04-26 15:01 27.28552 -80.28894 31506 ft 485 kts 211°
2026-04-26 15:01 27.25419 -80.30376 30607 ft 493 kts 201°
2026-04-26 15:02 27.22039 -80.31206 29644 ft 502 kts 190°
2026-04-26 15:02 27.18520 -80.31292 28706 ft 508 kts 178°
2026-04-26 15:02 27.15026 -80.30620 27858 ft 510 kts 167°
2026-04-26 15:02 27.11648 -80.29368 27004 ft 510 kts 163°
2026-04-26 15:03 27.08351 -80.28088 26332 ft 505 kts 163°
2026-04-26 15:03 27.05042 -80.26803 25694 ft 501 kts 163°
2026-04-26 15:03 27.01764 -80.25530 25065 ft 495 kts 163°
2026-04-26 15:03 26.98521 -80.24273 24416 ft 490 kts 162°
2026-04-26 15:04 26.96392 -80.23447 24002 ft 487 kts 162°
2026-04-26 15:04 26.93199 -80.22207 23351 ft 482 kts 162°
2026-04-26 15:04 26.90039 -80.20986 22637 ft 477 kts 162°
2026-04-26 15:04 26.86910 -80.19779 21950 ft 472 kts 162°
2026-04-26 15:05 26.83817 -80.18598 21269 ft 467 kts 163°
2026-04-26 15:05 26.81785 -80.17835 20814 ft 464 kts 163°
2026-04-26 15:05 26.77706 -80.16327 19933 ft 458 kts 163°
2026-04-26 15:05 26.74704 -80.15224 19527 ft 447 kts 163°
2026-04-26 15:06 26.71835 -80.14170 19429 ft 432 kts 163°
2026-04-26 15:06 26.69009 -80.13213 19296 ft 418 kts 166°
2026-04-26 15:06 26.66243 -80.12404 19113 ft 406 kts 168°
2026-04-26 15:06 26.63517 -80.11690 18733 ft 400 kts 169°
2026-04-26 15:07 26.58138 -80.10363 18012 ft 390 kts 170°
2026-04-26 15:07 26.55490 -80.09728 18004 ft 389 kts 170°
2026-04-26 15:07 26.52840 -80.09089 18008 ft 390 kts 170°
2026-04-26 15:08 26.50191 -80.08441 18004 ft 390 kts 169°
2026-04-26 15:08 26.47541 -80.07787 17989 ft 390 kts 169°
2026-04-26 15:08 26.44886 -80.07136 17465 ft 390 kts 170°
2026-04-26 15:08 26.42244 -80.06541 17134 ft 382 kts 171°
2026-04-26 15:09 26.39677 -80.06001 17003 ft 369 kts 171°
2026-04-26 15:09 26.37235 -80.05446 16871 ft 357 kts 169°
2026-04-26 15:09 26.34840 -80.04828 16587 ft 351 kts 168°
2026-04-26 15:09 26.32482 -80.04176 16210 ft 348 kts 168°
2026-04-26 15:10 26.30147 -80.03510 15832 ft 345 kts 168°
2026-04-26 15:10 26.28610 -80.03071 15577 ft 344 kts 168°
2026-04-26 15:10 26.25492 -80.02437 15070 ft 337 kts 181°
2026-04-26 15:10 26.23183 -80.02672 14693 ft 331 kts 195°
2026-04-26 15:11 26.20925 -80.03202 14068 ft 337 kts 195°
2026-04-26 15:11 26.18581 -80.03769 13102 ft 352 kts 195°
2026-04-26 15:11 26.16141 -80.04377 12098 ft 365 kts 195°
2026-04-26 15:11 26.13660 -80.05012 11435 ft 365 kts 195°
2026-04-26 15:12 26.11196 -80.05642 10975 ft 360 kts 194°
2026-04-26 15:12 26.08788 -80.06165 10857 ft 345 kts 192°
2026-04-26 15:12 26.06471 -80.06600 10723 ft 331 kts 192°
2026-04-26 15:12 26.04285 -80.07068 10613 ft 318 kts 194°
2026-04-26 15:13 26.02166 -80.07584 10490 ft 306 kts 195°
2026-04-26 15:13 26.00124 -80.08115 10303 ft 298 kts 196°
2026-04-26 15:13 25.98122 -80.08648 10001 ft 294 kts 196°
2026-04-26 15:13 25.96139 -80.09177 9661 ft 292 kts 195°
2026-04-26 15:14 25.94180 -80.09725 9307 ft 289 kts 200°
2026-04-26 15:14 25.92377 -80.10651 8954 ft 284 kts 214°
2026-04-26 15:14 25.90835 -80.11999 8585 ft 281 kts 226°
2026-04-26 15:14 25.89532 -80.13612 8231 ft 280 kts 232°
2026-04-26 15:15 25.88507 -80.15427 7871 ft 277 kts 246°
2026-04-26 15:15 25.87960 -80.17438 7545 ft 275 kts 262°
2026-04-26 15:15 25.87849 -80.19576 7195 ft 274 kts 269°
2026-04-26 15:15 25.87798 -80.21668 6857 ft 273 kts 267°
2026-04-26 15:16 25.87731 -80.23770 6533 ft 272 kts 266°
2026-04-26 15:16 25.87658 -80.25863 6174 ft 271 kts 267°
2026-04-26 15:16 25.87646 -80.27960 5780 ft 272 kts 275°
2026-04-26 15:16 25.88080 -80.30000 5432 ft 273 kts 290°
2026-04-26 15:17 25.88939 -80.31882 5088 ft 273 kts 297°
2026-04-26 15:17 25.89542 -80.33110 4863 ft 273 kts 298°
2026-04-26 15:17 25.90738 -80.35562 4422 ft 271 kts 297°
2026-04-26 15:17 25.91646 -80.37395 4088 ft 271 kts 297°
2026-04-26 15:18 25.92565 -80.39209 3993 ft 268 kts 298°
2026-04-26 15:18 25.93477 -80.41025 4001 ft 270 kts 298°
2026-04-26 15:18 25.94386 -80.42847 4003 ft 271 kts 297°
2026-04-26 15:18 25.95306 -80.44680 4003 ft 272 kts 297°
2026-04-26 15:19 25.95932 -80.46631 4002 ft 268 kts 274°
2026-04-26 15:19 25.95706 -80.48660 4003 ft 265 kts 248°
2026-04-26 15:19 25.94812 -80.50430 4001 ft 263 kts 235°
2026-04-26 15:19 25.93793 -80.52085 3998 ft 259 kts 229°
2026-04-26 15:20 25.92454 -80.53364 3693 ft 256 kts 207°
2026-04-26 15:20 25.90769 -80.53889 3463 ft 249 kts 182°
2026-04-26 15:20 25.89097 -80.53629 3367 ft 238 kts 161°
2026-04-26 15:20 25.87708 -80.52729 3298 ft 229 kts 139°
2026-04-26 15:21 25.86738 -80.51340 3232 ft 229 kts 117°
2026-04-26 15:21 25.86300 -80.49643 3159 ft 232 kts 95°
2026-04-26 15:21 25.86464 -80.47869 3056 ft 233 kts 72°
2026-04-26 15:21 25.86980 -80.46180 2985 ft 224 kts 79°
2026-04-26 15:22 25.87019 -80.44505 2781 ft 216 kts 105°
2026-04-26 15:22 25.86453 -80.42997 2522 ft 211 kts 122°
2026-04-26 15:22 25.85736 -80.41599 2271 ft 209 kts 121°
2026-04-26 15:22 25.85045 -80.40250 2022 ft 192 kts 122°
2026-04-26 15:23 25.84419 -80.39022 1778 ft 175 kts 120°
2026-04-26 15:23 25.83832 -80.37874 1548 ft 166 kts 122°
2026-04-26 15:23 25.83289 -80.36808 1365 ft 154 kts 121°
2026-04-26 15:23 25.82769 -80.35792 1153 ft 150 kts 122°
2026-04-26 15:24 25.82262 -80.34799 955 ft 146 kts 123°
2026-04-26 15:24 25.81756 -80.33808 770 ft 148 kts 121°
2026-04-26 15:24 25.81256 -80.32832 578 ft 146 kts 122°
2026-04-26 15:24 25.80764 -80.31852 384 ft 144 kts 121°
2026-04-26 15:25 25.80285 -80.30896 197 ft 139 kts 124°
2026-04-26 15:25 25.79962 -80.30287 64 ft 136 kts 123°
2026-04-26 15:25 25.79391 -80.29186 14 ft 108 kts 120°
2026-04-26 15:25 25.79107 -80.28624 14 ft 44 kts 116°
2026-04-26 15:26 25.79143 -80.28434 15 ft 22 kts 49°
2026-04-26 15:26 25.79151 -80.28357 17 ft 8 kts 112°
2026-04-26 15:26 25.79128 -80.28295 16 ft 10 kts 112°
2026-04-26 15:26 25.79094 -80.28226 16 ft 9 kts 114°
2026-04-26 15:27 25.79126 -80.28198 15 ft 5 kts 28°
2026-04-26 15:27 25.79146 -80.28184 15 ft 3 kts 31°
2026-04-26 15:27 25.79155 -80.28178 15 ft 0 kts 31°